Torna al catalogo

STARLINK-33721

AttivoComunicazioniVLEO
NORAD 63480·PAYLOAD·🇺🇸 United States

Lanciato Apr 6, 2025 da Cape Canaveral Space Force Station

Loading…

Prossimi Passaggi (prossime 24 ore)

TLE

AggiornatoSource: CelesTrak SupGP

Epoca: Sep 14, 2026, 14:41 UTC

1 63480C 25070W   26257.61229167 -.00019095  00000+0 -69238-3 0  2574
2 63480  43.0028 269.1940 0001435 274.9324  20.9246 15.27551444    17

Traccia STARLINK-33721 in tempo reale con AllMySat

Download on the App Store